Regional Weather Roundup
Issued by NWS Jackson, KY

Home | Current Version | Previous Version | Graphics & Text | Print | Product List | Glossary On
Versions: 1 2 3 4 5 6 7 8 9 10 11 12 13 14 15 16 17 18 19 20 21 22 23 24 25 26 27 28 29 30 31 32 33 34 35 36 37 38 39 40 41 42 43 44 45 46 47 48 49 50
000
ASUS43 KJKL 290410
RWRJKL

EAST KENTUCKY HOURLY WEATHER ROUNDUP
NATIONAL WEATHER SERVICE JACKSON KY
1200 AM EDT SUN MAR 29 2015

NOTE: "FAIR" INDICATES FEW OR NO CLOUDS BELOW 12,000 FEET WITH
NO SIGNIFICANT WEATHER AND/OR OBSTRUCTIONS TO VISIBILITY.

* THESE REPORTS ARE NOT UNDER NWS QUALITY CONTROL AND MAY NOT
  REPORT WEATHER SUCH AS PRECIPITATION AND FOG.

KYZ079-080-083-085-087-088-110-112-115-119-120-290500
...EASTERN KENTUCKY...

CITY           SKY/WX    TMP DP  RH WIND       PRES   REMARKS
JACKSON        CLEAR     28  10  46 VRB3      30.32R
LONDON         CLEAR     30  13  49 CALM      30.32R
SOMERSET*      CLEAR     28  19  69 CALM      30.36R
MONTICELLO*    CLEAR     23  19  85 CALM      30.37R
MIDDLESBORO*   CLEAR     29  19  66 CALM      30.33R
HAZARD APT*    CLEAR     30  10  43 CALM      30.33R
BLACK MTN*       N/A     16  14  93 N3          N/A
PIKEVILLE APT* CLEAR     27   9  46 CALM      30.31R
BIG SANDY*     CLEAR     28  10  46 CALM      30.33R
$$

KYZ035-036-041-042-044-050-067-078-099-290500
...CENTRAL KENTUCKY...

CITY           SKY/WX    TMP DP  RH WIND       PRES   REMARKS
MT STERLING*   CLEAR     28  16  59 E3        30.36R
FLEMING/MASON* CLEAR     27  12  54 CALM      30.37R
DANVILLE*      CLEAR     27  19  74 CALM      30.35R
RICHMOND*      CLEAR     28  16  59 E3        30.33S
LEXINGTON      CLEAR     30  13  49 E3        30.34R
FRANKFORT      CLEAR     24  16  71 CALM      30.34R
$$

KYZ091>093-OHZ055-061-077-WVZ005-015-034-035-042-290500
...SOUTHERN OHIO/WEST VIRGINIA...

CITY           SKY/WX    TMP DP  RH WIND       PRES   REMARKS
COVINGTON      CLEAR     30  13  49 NE6       30.35R WCI  24
COLUMBUS       CLEAR     24  13  62 CALM      30.35R
DAYTON         CLEAR     28  13  53 CALM      30.34S
WILMINGTON     CLEAR     25  16  68 CALM      30.35R
HUNTINGTON     CLEAR     27  11  51 N3        30.35R
CHARLESTON     CLEAR     28   9  44 N7        30.33R WCI  21
PINEVILLE*     CLEAR     25  19  77 MISG      30.32R
BECKLEY        CLEAR     21   5  50 NW6       30.22R WCI  13
BLUEFIELD      CLEAR     23   5  46 NW5       30.21R WCI  17
$$

VAZ002-007-008-TNZ017-027-036-066-071-290500
...SOUTHWEST VIRGINIA/EAST TENNESSEE...

CITY           SKY/WX    TMP DP  RH WIND       PRES   REMARKS
WISE*          CLEAR     27  10  50 N5        30.24S WCI  21
JONESVILLE*    CLEAR     27  16  63 CALM      30.32R
ABINGDON*      CLEAR     31   7  36 N5        30.25S WCI  26
BRISTOL        CLEAR     32   8  36 CALM      30.28R
KNOXVILLE      CLEAR     35  13  40 N7        30.31R WCI  29
OAK RIDGE      CLEAR     35  14  42 CALM      30.33R
CROSSVILLE     CLEAR     31  12  45 N5        30.29R WCI  26
NASHVILLE      CLEAR     33  18  53 CALM      30.34R
$$

...KEY TO REMARKS...
VSB - VISIBILITY IN MILES
WCI - WIND CHILL INDEX
HX  - HEAT INDEX

$$


USA.gov is the U.S. government's official web portal to all federal, state and local government web resources and services.